Date String (YYYY-MM-DD hh:mm:ss) UTC,Instrument flags,Ambient pressure (hPa),Sample flow (lpm),Bypass flow (lpm),Sample temperature (°C),Ambient temperature (°C),ASC tube jacket temperature (°C),LED temperature (°C),Box temperature (°C),Sample RH (%),Span deviation,Mass concentration (μg/m³),Mass concentration (μg/m³),Mass concentration (μg/m³)
DateTimeUTC,F1_M11,P_M11,Q1_M11,Q2_M11,T1_M11,T2_M11,T3_M11,T4_M11,T5_M11,U1_M11,ZSPAN_M11,X0_M11,X2_M11,X1_M11
2022-06-06 09:00:00,,0821.3,5.01,0.00,30.1,29.0,00.0,39.0,32.0,24.4,0000.0,0009.96,0004.11,0002.85
2022-06-06 09:01:00,,0821.3,4.99,0.00,30.1,29.0,00.0,39.0,32.0,24.4,0000.0,0010.15,0004.09,0002.84
2022-06-06 09:02:00,,0821.3,4.99,0.00,30.1,29.0,00.0,39.0,32.0,24.4,0000.0,0010.22,0004.09,0002.82
2022-06-06 09:03:00,,0821.3,5.01,0.00,30.1,29.0,00.0,39.0,32.0,24.3,0000.0,0009.91,0004.08,0002.82
2022-06-06 09:04:00,,0821.3,5.00,0.00,30.1,29.0,00.0,39.0,32.0,24.3,0000.0,0010.28,0004.10,0002.83
2022-06-06 09:05:00,,0821.3,5.01,0.00,30.1,29.0,00.0,39.0,32.0,24.3,0000.0,0010.29,0004.11,0002.82
2022-06-06 09:06:00,,0821.3,4.99,0.00,30.1,29.0,00.0,39.0,32.0,24.3,0000.0,0010.43,0004.15,0002.82
2022-06-06 09:07:00,,0821.3,4.99,0.00,30.1,29.0,00.0,39.0,32.0,24.4,0000.0,0010.39,0004.13,0002.80
2022-06-06 09:08:00,,0821.2,5.01,0.00,30.1,29.0,00.0,39.0,32.0,24.3,0000.0,0010.25,0004.10,0002.79
2022-06-06 09:09:00,,0821.2,4.99,0.00,30.1,29.0,00.0,39.0,32.0,24.4,0000.0,0010.10,0004.07,0002.78
2022-06-06 09:10:00,,0821.2,5.01,0.00,30.1,29.0,00.0,39.0,32.0,24.4,0000.0,0009.74,0004.06,0002.78
2022-06-06 09:11:00,,0821.2,5.00,0.00,30.1,29.0,00.0,39.0,32.0,24.4,0000.0,0009.02,0004.01,0002.80
2022-06-06 09:12:00,,0821.2,5.00,0.00,30.1,29.0,00.0,39.0,32.0,24.4,0000.0,0008.66,0003.98,0002.81
2022-06-06 09:13:00,,0821.2,4.99,0.00,30.1,29.0,00.0,39.0,32.0,24.3,0000.0,0008.83,0003.96,0002.79
2022-06-06 09:14:00,,0821.2,5.01,0.00,30.1,29.0,00.0,39.0,32.0,24.3,0000.0,0009.35,0003.99,0002.79
2022-06-06 09:15:00,,0821.2,5.01,0.00,30.1,29.0,00.0,39.0,32.0,24.3,0000.0,0009.04,0004.01,0002.79
2022-06-06 09:16:00,,0821.2,4.98,0.00,30.1,29.0,00.0,39.0,32.0,24.3,0000.0,0008.92,0003.96,0002.78
2022-06-06 09:17:00,,0821.2,5.01,0.00,30.1,29.0,00.0,39.0,32.0,24.2,0000.0,0008.94,0003.93,0002.77
2022-06-06 09:18:00,,0821.2,5.00,0.00,30.2,29.0,00.0,39.0,32.0,24.3,0000.0,0009.15,0003.94,0002.78
2022-06-06 09:19:00,,0821.2,5.00,0.00,30.1,29.0,00.0,39.0,32.0,24.3,0000.0,0009.21,0003.97,0002.80
2022-06-06 09:20:00,,0821.2,4.99,0.00,30.1,29.0,00.0,39.1,32.0,24.3,0000.0,0009.35,0003.99,0002.82
2022-06-06 09:21:00,,0821.2,5.01,0.00,30.1,29.0,00.0,39.1,32.0,24.3,0000.0,0009.72,0003.99,0002.84
2022-06-06 09:22:00,,0821.2,5.00,0.00,30.1,29.0,00.0,39.1,32.0,24.3,0000.0,0009.76,0004.00,0002.83
2022-06-06 09:23:00,,0821.3,5.00,0.00,30.2,29.0,00.0,39.1,32.0,24.3,0000.0,0010.02,0004.08,0002.83
2022-06-06 09:24:00,,0821.3,4.99,0.00,30.2,29.0,00.0,39.1,32.0,24.2,0000.0,0009.91,0004.10,0002.86
2022-06-06 09:25:00,,0821.3,4.99,0.00,30.2,29.0,00.0,39.1,32.0,24.1,0000.0,0009.68,0004.06,0002.86
2022-06-06 09:26:00,,0821.2,5.01,0.00,30.2,29.0,00.0,39.1,32.0,24.0,0000.0,0009.76,0004.08,0002.85
2022-06-06 09:27:00,,0821.3,5.00,0.00,30.2,29.0,00.0,39.1,32.0,24.0,0000.0,0009.78,0004.08,0002.85
2022-06-06 09:28:00,,0821.3,4.99,0.00,30.2,29.0,00.0,39.1,32.0,24.0,0000.0,0009.68,0004.09,0002.85
2022-06-06 09:29:00,,0821.3,5.02,0.00,30.2,29.0,00.0,39.1,32.0,23.9,0000.0,0009.44,0004.11,0002.84
2022-06-06 09:30:00,,0821.3,5.00,0.00,30.2,29.0,00.0,39.1,32.0,24.0,0000.0,0009.43,0004.09,0002.85
2022-06-06 09:31:00,,0821.3,5.00,0.00,30.2,29.0,00.0,39.1,32.0,24.0,0000.0,0009.41,0004.10,0002.86
2022-06-06 09:32:00,,0821.3,5.00,0.00,30.2,29.0,00.0,39.1,32.0,24.0,0000.0,0009.04,0004.09,0002.85
2022-06-06 09:33:00,,0821.3,5.01,0.00,30.2,29.0,00.0,39.1,32.0,24.1,0000.0,0008.99,0004.11,0002.85
2022-06-06 09:34:00,,0821.3,5.00,0.00,30.2,29.0,00.0,39.1,32.0,24.1,0000.0,0009.16,0004.07,0002.85
2022-06-06 09:35:00,,0821.3,5.01,0.00,30.2,29.1,00.0,39.1,32.0,24.1,0000.0,0009.46,0004.07,0002.85
2022-06-06 09:36:00,,0821.3,5.01,0.00,30.2,29.1,00.0,39.1,32.0,24.1,0000.0,0009.24,0004.07,0002.86
2022-06-06 09:37:00,,0821.3,4.99,0.00,30.2,29.1,00.0,39.1,32.0,24.0,0000.0,0009.18,0004.07,0002.88
2022-06-06 09:38:00,,0821.3,4.99,0.00,30.2,29.1,00.0,39.1,32.0,23.7,0000.0,0009.26,0004.12,0002.89
2022-06-06 09:39:00,,0821.3,5.02,0.00,30.2,29.1,00.0,39.1,32.0,23.9,0000.0,0009.64,0004.12,0002.87
2022-06-06 09:40:00,,0821.3,5.00,0.00,30.2,29.1,00.0,39.1,32.0,23.9,0000.0,0010.15,0004.13,0002.89
2022-06-06 09:41:00,,0821.3,5.00,0.00,30.2,29.1,00.0,39.1,32.0,23.6,0000.0,0010.71,0004.16,0002.89
2022-06-06 09:42:00,,0821.3,5.01,0.00,30.2,29.1,00.0,39.1,32.0,23.6,0000.0,0010.96,0004.16,0002.86
2022-06-06 09:43:00,,0821.3,5.00,0.00,30.2,29.1,00.0,39.1,32.0,23.8,0000.0,0011.11,0004.20,0002.87
2022-06-06 09:44:00,,0821.3,4.99,0.00,30.2,29.1,00.0,39.1,32.1,23.9,0000.0,0011.10,0004.15,0002.87
2022-06-06 09:45:00,,0821.3,5.00,0.00,30.2,29.2,00.0,39.1,32.1,23.9,0000.0,0011.03,0004.14,0002.87
2022-06-06 09:46:00,,0821.3,4.99,0.00,30.2,29.2,00.0,39.1,32.1,23.8,0000.0,0010.28,0004.12,0002.84
2022-06-06 09:47:00,,0821.3,4.99,0.00,30.2,29.2,00.0,39.1,32.1,23.8,0000.0,0010.41,0004.15,0002.85
2022-06-06 09:48:00,,0821.2,5.01,0.00,30.2,29.2,00.0,39.1,32.1,23.7,0000.0,0010.33,0004.12,0002.85
2022-06-06 09:49:00,,0821.2,4.99,0.00,30.2,29.2,00.0,39.1,32.1,23.5,0000.0,0010.34,0004.12,0002.86
2022-06-06 09:50:00,,0821.2,5.00,0.00,30.2,29.2,00.0,39.1,32.1,23.5,0000.0,0010.23,0004.12,0002.90
2022-06-06 09:51:00,,0821.2,5.01,0.00,30.2,29.2,00.0,39.1,32.1,23.5,0000.0,0009.84,0004.13,0002.91
2022-06-06 09:52:00,,0821.2,4.99,0.00,30.2,29.2,00.0,39.2,32.1,23.4,0000.0,0009.38,0004.09,0002.89
2022-06-06 09:53:00,,0821.2,5.01,0.00,30.3,29.2,00.0,39.2,32.1,23.2,0000.0,0009.14,0004.08,0002.92
2022-06-06 09:54:00,,0821.3,4.99,0.00,30.3,29.2,00.0,39.2,32.1,23.1,0000.0,0009.08,0004.05,0002.92
2022-06-06 09:55:00,,0821.2,4.99,0.00,30.3,29.2,00.0,39.2,32.1,22.9,0000.0,0009.40,0004.07,0002.92
2022-06-06 09:56:00,,0821.2,4.99,0.00,30.3,29.2,00.0,39.2,32.1,22.8,0000.0,0009.40,0004.09,0002.93
2022-06-06 09:57:00,,0821.2,5.01,0.00,30.3,29.2,00.0,39.2,32.1,22.7,0000.0,0009.95,0004.12,0002.94
2022-06-06 09:58:00,,0821.2,4.99,0.00,30.3,29.3,00.0,39.2,32.1,22.5,0000.0,0010.30,0004.10,0002.93
2022-06-06 09:59:00,,0821.2,5.02,0.00,30.3,29.3,00.0,39.2,32.1,21.5,0000.0,0010.47,0004.15,0002.90
